Vertical_Velocity
2 -3 4 -2 1 1 -5 -2 1 -0 0 3 -1 17 9 10 4 4 2 -0 2 -5
0 3 1 -3 1 3 -2 0 1 -0 -1 1 -2 6 6 2 -1 -1 -2 1 4 -3
1 -3 0 0 2 -1 -0 -1 -2 2 3 1 -5 0 3 8 7 1 -2 -1 -1 1
1 -12 5 -1 1 0 -1 -1 -3 -0 -1 2 2 -1 1 4 0 7 3 3 -1 -1
12 -5 -0 1 3 0 -1 -2 -0 1 0 4 3 -1 10 7 5 -4 -3 -3 -0 -3
-1 1 6 2 2 1 2 -1 3 3 1 0 4 -1 5 2 -0 -1 -0 -2 -3 1
-2 2 2 3 2 3 3 -2 -3 -2 -2 -3 -3 0 2 2 9 5 3 4 7 6
2 -3 3 0 1 -0 0 -2 1 -0 -2 -1 -2 2 0 -2 -1 4 14 13 1 -0
1 -6 -2 1 2 2 1 2 1 2 2 0 1 3 -1 -1 1 2 -0 -1 3 -1
6 6 3 3 9 5 5 0 1 3 -0 -1 1 4 3 2 -1 0 1 3 5 -1
6 5 3 2 -1 4 7 6 1 1 5 -1 -4 2 7 6 2 1 2 3 1 2
3 8 7 8 4 0 2 4 5 1 2 4 -3 1 0 5 3 2 1 1 -0 1
-2 -3 -2 7 1 -0 2 6 2 6 1 12 -5 -1 1 2 4 2 1 -1 2 2
4 -4 7 -5 8 -5 -3 -0 7 -1 1 13 -2 -3 -4 6 -1 4 -3 -3 -2 -1
Height
1422 1426 1429 1431 1435 1437 1438 1441 1444 1447 1448 1450 1451 1450 1453 1459 1464 1470 1477 1484 1491 1497
1420 1425 1427 1430 1433 1435 1436 1439 1442 1444 1445 1445 1445 1447 1450 1457 1462 1468 1474 1482 1488 1495
1418 1423 1426 1428 1431 1432 1434 1437 1440 1441 1442 1443 1445 1448 1450 1454 1458 1465 1472 1479 1485 1491
1416 1420 1425 1426 1429 1430 1432 1435 1438 1440 1441 1442 1444 1445 1447 1450 1456 1462 1468 1475 1481 1486
1414 1418 1423 1425 1427 1429 1431 1434 1436 1438 1439 1441 1443 1445 1447 1449 1453 1459 1467 1473 1478 1483
1414 1418 1421 1424 1426 1429 1430 1433 1435 1436 1438 1440 1442 1445 1447 1451 1455 1460 1466 1470 1474 1478
1413 1417 1420 1422 1424 1427 1428 1430 1432 1434 1436 1438 1441 1443 1446 1451 1454 1458 1462 1467 1469 1472
1413 1417 1420 1423 1424 1426 1427 1429 1431 1433 1435 1437 1440 1442 1446 1448 1451 1455 1458 1460 1463 1466
1412 1417 1419 1421 1424 1425 1427 1428 1430 1431 1434 1437 1440 1443 1445 1447 1449 1452 1455 1458 1460 1462
1411 1413 1417 1419 1420 1422 1424 1426 1428 1430 1432 1435 1438 1441 1443 1446 1448 1451 1452 1456 1457 1460
1408 1412 1415 1418 1420 1420 1421 1423 1425 1427 1428 1431 1435 1438 1440 1443 1445 1448 1450 1452 1455 1457
1408 1411 1413 1414 1416 1419 1422 1423 1424 1427 1428 1428 1430 1435 1438 1440 1441 1443 1446 1448 1450 1452
1418 1419 1417 1419 1418 1421 1424 1424 1425 1427 1429 1429 1427 1434 1436 1439 1439 1440 1441 1444 1445 1447
1426 1420 1420 1427 1423 1425 1427 1429 1426 1429 1430 1431 1427 1433 1436 1437 1440 1442 1442 1445 1446 1447